Location: Palomar Mountain Lodge
(33.3110°N, 116.8495°W)
Time: 19:20:45
(UTC-08:00)

SL-16 R/B - Pass Details

Date: 13 December 2025
Orbit: 841 x 845 km, 71.0° (Epoch: 12 January)

Event Time Altitude Azimuth Distance (km) Brightness Sun altitude
Rises 19:32:58 0° 232° (SW) 3,382 6.1 -35.0°
Reaches altitude 10° 19:35:51 10° 245° (WSW) 2,451 5.3 -35.6°
Maximum altitude 19:40:23 25° 300° (WNW) 1,649 4.1 -36.6°
Enters shadow 19:41:05 24° 311° (NW) 1,673 4.0 -36.7°
